User: anonymous   Login
Location: Franzen
(48.6167°N, 15.3833°E)
Time: 13:14:50
(UTC+00:00)
Language:

CARTOSAT-1 - Orbit

View from above orbital plane
View from above orbital plane
View from above satellite
View from above satellite

Ground track
Ground track

The orbit data is extracted from the following two-line orbital elements,

1 28649U 05017A   21173.74342828  .00000058  00000-0  13283-4 0  9998
2 28649  97.7674 239.7574 0001003  30.8305 329.2968 14.83795555873392
Epoch (UTC): 22 June 2021 17:50:32
Eccentricity: 0.0001003
inclination: 97.7674°
perigee height: 616 km
apogee height: 618 km
right ascension of ascending node: 239.7574°
argument of perigee: 30.8305°
revolutions per day: 14.83795555
mean anomaly at epoch: 329.2968°
orbit number at epoch: 87339

The dashed part of the orbit path shows where the satellite is in the earth's shadow,  

DLR